Hourly Data Report for October 04, 2017

All times are specified in Local Standard Time (LST). Add 1 hour to adjust for Daylight Saving Time where and when it is observed.

SANDSPIT
BRITISH COLUMBIA

53°15'15.000" N
131°48'50.000" W
6.40 m
1057052
71111
YZP

Download Data

Hourly Data (October 2017)
Hourly Data Report for October 4, 2017
Temp Definition
°C
Dew Point Temp Definition
°C
Rel Hum Definition
%
Wind Dir Definition
10's deg

Wind Spd Definition
km/h
Visibility Definition
km
Stn Press Definition
kPa
Hmdx Definition


Wind Chill Definition


Weather Definition


TIME
00:00 Legend Double Dagger 7.0 6.4 96   0 16.1 102.27     LegendNANA
01:00 Legend Double Dagger 6.6 6.6 100 23 5 16.1 102.30     LegendNANA
02:00 Legend Double Dagger 7.6 7.0 96 31 5 16.1 102.28     LegendNANA
03:00 Legend Double Dagger 7.6 6.4 92 25 4 16.1 102.27     LegendNANA
04:00 Legend Double Dagger 6.3 5.4 94   0 16.1 102.25     LegendNANA
05:00 Legend Double Dagger 6.5 5.6 94 24 4 16.1 102.25     LegendNANA
06:00 Legend Double Dagger 6.8 6.7 99 27 4 16.1 102.19     LegendNANA
07:00 Legend Double Dagger 6.4 5.7 95 24 9 16.1 102.21     LegendNANA
08:00 Legend Double Dagger 7.7 5.5 86 25 9 16.1 102.21     LegendNANA
09:00 Legend Double Dagger 9.8 7.5 85 16 9 16.1 102.20     LegendNANA
10:00 Legend Double Dagger 11.4 7.7 78 13 13 16.1 102.19     LegendNANA
11:00 Legend Double Dagger 12.4 6.3 66 11 9 16.1 102.18     LegendNANA
12:00 Legend Double Dagger 12.7 7.0 68 14 11 16.1 102.20     LegendNANA
13:00 Legend Double Dagger 12.9 7.2 68 13 15 16.1 102.16     LegendNANA
14:00 Legend Double Dagger 13.7 7.7 67 14 17 16.1 102.12     LegendNANA
15:00 Legend Double Dagger 13.6 7.9 68 13 15 16.1 102.13     LegendNANA
16:00 Legend Double Dagger 13.4 10.1 80 13 18 16.1 102.09     LegendNANA
17:00 Legend Double Dagger 12.8 9.9 82 14 18 16.1 102.07     LegendNANA
18:00 Legend Double Dagger 11.5 10.0 90 14 21 16.1 102.04     LegendNANA
19:00 Legend Double Dagger 10.1 9.7 97 15 17 16.1 102.05     LegendNANA
20:00 Legend Double Dagger 10.1 10.1 100 20 8 16.1 102.05     LegendNANA
21:00 Legend Double Dagger 9.5 9.1 97 26 8 16.1 102.04     LegendNANA
22:00 Legend Double Dagger 9.3 8.1 92 28 11 16.1 102.03     LegendNANA
23:00 Legend Double Dagger 8.7 8.4 98 22 8 16.1 102.04     LegendNANA

Notes on Data Quality.

Legend

  • E = Estimated
  • M = Missing
  • NA = Not Available
  • ‡ = Partner data that is not subject to review by the National Climate Archives
Date modified: